Location: Arezzo
(43.4170°N, 11.8830°E)
Time: 02:17:08
(UTC+02:00)

STARLINK-2711 - Visible Passes

Search period start: 24 October 2021 00:00
Search period end: 02 November 2021 23:00
Orbit: 546 x 548 km, 53.1° (Epoch: 23 October)

Date Brightness Start Highest point End Pass type
(mag) Time Alt. Az. Time Alt. Az. Time Alt. Az.
24 Oct 5.3 06:33:57 10° SSW 06:37:40 33° SE 06:41:24 10° ENE visible
25 Oct 4.7 06:27:23 10° SSW 06:31:18 44° SE 06:35:14 10° ENE visible
26 Oct 4.1 06:21:02 11° SW 06:24:56 59° SE 06:29:01 10° ENE visible
27 Oct 6.6 04:40:12 12° ESE 04:40:12 12° ESE 04:41:23 10° ESE visible
27 Oct 3.7 06:15:51 20° SW 06:18:36 78° SE 06:22:44 10° ENE visible
28 Oct 6.6 04:34:49 14° ESE 04:34:49 14° ESE 04:35:52 10° E visible
28 Oct 3.5 06:10:28 32° WSW 06:12:16 83° NW 06:16:25 10° NE visible
29 Oct 6.7 04:29:17 13° E 04:29:17 13° E 04:29:58 10° E visible
29 Oct 3.6 06:04:55 45° W 06:05:58 65° NNW 06:10:04 10° NE visible
30 Oct 6.9 04:23:36 12° ENE 04:23:36 12° ENE 04:23:54 10° ENE visible
30 Oct 3.8 05:59:13 49° NW 05:59:39 52° NNW 06:03:42 10° NE visible
31 Oct 4.1 04:53:25 43° NNW 04:53:25 43° NNW 04:57:19 10° NE visible
01 Nov 4.6 04:47:32 35° N 04:47:32 35° N 04:50:55 10° NE visible
02 Nov 5.0 04:41:35 29° N 04:41:35 29° N 04:44:31 10° NE visible
